Time,TemperatureF,DewpointF,PressureIn,WindDirection,WindDirectionDegrees,WindSpeedMPH,WindSpeedGustMPH,Humidity,HourlyPrecipIn,Conditions,Clouds,dailyrainin,SoftwareType,DateUTC
2013-07-06 02:38:00,48.6,40.3,31.01,North,-999,-999.0,-999.0,73,0.00,,,0.00,VWS V14.01,2013-07-06 09:38:00,
2013-07-06 02:43:00,48.4,40.8,31.01,North,-999,-999.0,-999.0,75,0.00,,,0.00,VWS V14.01,2013-07-06 09:43:00,
2013-07-06 02:48:00,48.7,41.5,31.01,North,-999,-999.0,-999.0,76,0.00,,,0.00,VWS V14.01,2013-07-06 09:48:00,
2013-07-06 02:53:00,49.3,41.4,31.01,North,-999,-999.0,-999.0,74,0.00,,,0.00,VWS V14.01,2013-07-06 09:53:00,
2013-07-06 02:58:00,49.6,41.7,31.01,North,-999,-999.0,-999.0,74,0.00,,,0.00,VWS V14.01,2013-07-06 09:58:00,
2013-07-06 03:03:00,50.0,42.0,31.01,North,-999,-999.0,-999.0,74,0.00,,,0.00,VWS V14.01,2013-07-06 10:03:00,
2013-07-06 03:08:00,50.2,41.9,31.01,North,-999,-999.0,-999.0,73,0.00,,,0.00,VWS V14.01,2013-07-06 10:08:00,
2013-07-06 03:13:00,50.0,41.3,31.01,North,-999,-999.0,-999.0,72,0.00,,,0.00,VWS V14.01,2013-07-06 10:13:00,
2013-07-06 03:18:00,49.6,41.0,31.01,North,-999,-999.0,-999.0,72,0.00,,,0.00,VWS V14.01,2013-07-06 10:18:00,
2013-07-06 03:23:00,49.5,41.2,31.01,North,-999,-999.0,-999.0,73,0.00,,,0.00,VWS V14.01,2013-07-06 10:23:00,
2013-07-06 03:28:00,48.9,40.7,31.01,North,-999,-999.0,-999.0,73,0.00,,,0.00,VWS V14.01,2013-07-06 10:28:00,
2013-07-06 03:33:00,48.0,39.4,31.01,North,-999,-999.0,-999.0,72,0.00,,,0.00,VWS V14.01,2013-07-06 10:33:00,
2013-07-06 03:38:00,47.5,40.3,31.01,North,-999,-999.0,-999.0,76,0.00,,,0.00,VWS V14.01,2013-07-06 10:38:00,
2013-07-06 03:43:00,48.0,41.2,31.01,North,-999,-999.0,-999.0,77,0.00,,,0.00,VWS V14.01,2013-07-06 10:43:00,
2013-07-06 03:48:00,48.7,41.5,31.01,North,-999,-999.0,-999.0,76,0.00,,,0.00,VWS V14.01,2013-07-06 10:48:00,
2013-07-06 03:53:00,48.7,40.8,31.01,North,-999,-999.0,-999.0,74,0.00,,,0.00,VWS V14.01,2013-07-06 10:53:00,
2013-07-06 03:58:00,48.7,40.5,31.01,North,-999,-999.0,-999.0,73,0.00,,,0.00,VWS V14.01,2013-07-06 10:58:00,
2013-07-06 04:03:00,47.7,39.4,31.01,North,-999,-999.0,-999.0,73,0.00,,,0.00,VWS V14.01,2013-07-06 11:03:00,
2013-07-06 04:08:00,46.8,39.6,31.01,North,-999,-999.0,-999.0,76,0.00,,,0.00,VWS V14.01,2013-07-06 11:08:00,
2013-07-06 04:13:00,46.2,40.1,31.01,North,-999,-999.0,-999.0,79,0.00,,,0.00,VWS V14.01,2013-07-06 11:13:00,
2013-07-06 04:18:00,46.6,41.4,31.01,North,-999,-999.0,-999.0,82,0.00,,,0.00,VWS V14.01,2013-07-06 11:18:00,
2013-07-06 04:23:00,47.5,42.6,31.01,North,-999,-999.0,-999.0,83,0.00,,,0.00,VWS V14.01,2013-07-06 11:23:00,
2013-07-06 04:28:00,47.8,41.7,31.01,North,-999,-999.0,-999.0,79,0.00,,,0.00,VWS V14.01,2013-07-06 11:28:00,
2013-07-06 04:33:00,46.9,39.8,31.01,North,-999,-999.0,-999.0,76,0.00,,,0.00,VWS V14.01,2013-07-06 11:33:00,
2013-07-06 04:38:00,46.6,40.1,31.01,North,-999,-999.0,-999.0,78,0.00,,,0.00,VWS V14.01,2013-07-06 11:38:00,
2013-07-06 04:43:00,46.6,40.4,31.01,North,-999,-999.0,-999.0,79,0.00,,,0.00,VWS V14.01,2013-07-06 11:43:00,
2013-07-06 04:48:00,46.2,40.4,31.01,North,-999,-999.0,-999.0,80,0.00,,,0.00,VWS V14.01,2013-07-06 11:48:00,
2013-07-06 04:53:00,46.0,40.5,31.01,North,-999,-999.0,-999.0,81,0.00,,,0.00,VWS V14.01,2013-07-06 11:53:00,
2013-07-06 04:58:00,46.4,41.5,31.01,North,-999,-999.0,-999.0,83,0.00,,,0.00,VWS V14.01,2013-07-06 11:58:00,
2013-07-06 05:03:00,46.6,41.7,31.01,North,-999,-999.0,-999.0,83,0.00,,,0.00,VWS V14.01,2013-07-06 12:03:00,
2013-07-06 05:08:00,46.9,41.4,31.01,North,-999,-999.0,-999.0,81,0.00,,,0.00,VWS V14.01,2013-07-06 12:08:00,
2013-07-06 05:13:00,46.6,40.4,31.01,North,-999,-999.0,-999.0,79,0.00,,,0.00,VWS V14.01,2013-07-06 12:13:00,
2013-07-06 05:18:00,47.3,42.4,31.01,North,-999,-999.0,-999.0,83,0.00,,,0.00,VWS V14.01,2013-07-06 12:18:00,
2013-07-06 05:23:00,48.7,43.2,31.01,North,-999,-999.0,-999.0,81,0.00,,,0.00,VWS V14.01,2013-07-06 12:23:00,
2013-07-06 05:28:00,50.0,42.7,31.01,North,-999,-999.0,-999.0,76,0.00,,,0.00,VWS V14.01,2013-07-06 12:28:00,
2013-07-06 05:33:00,50.0,42.0,31.01,North,-999,-999.0,-999.0,74,0.00,,,0.00,VWS V14.01,2013-07-06 12:33:00,
2013-07-06 05:38:00,49.6,42.0,31.01,North,-999,-999.0,-999.0,75,0.00,,,0.00,VWS V14.01,2013-07-06 12:38:00,
2013-07-06 05:43:00,50.2,42.6,31.01,North,-999,-999.0,-999.0,75,0.00,,,0.00,VWS V14.01,2013-07-06 12:43:00,
2013-07-06 05:48:00,50.2,42.2,31.01,North,-999,-999.0,-999.0,74,0.00,,,0.00,VWS V14.01,2013-07-06 12:48:00,
2013-07-06 05:53:00,50.2,42.6,31.01,North,-999,-999.0,-999.0,75,0.00,,,0.00,VWS V14.01,2013-07-06 12:53:00,
2013-07-06 05:58:00,50.4,42.8,31.01,North,-999,-999.0,-999.0,75,0.00,,,0.00,VWS V14.01,2013-07-06 12:58:00,
2013-07-06 06:03:00,50.4,42.8,31.01,North,-999,-999.0,-999.0,75,0.00,,,0.00,VWS V14.01,2013-07-06 13:03:00,
2013-07-06 06:08:00,50.5,42.9,31.01,North,-999,-999.0,-999.0,75,0.00,,,0.00,VWS V14.01,2013-07-06 13:08:00,
2013-07-06 06:13:00,50.9,43.3,31.01,North,-999,-999.0,-999.0,75,0.00,,,0.00,VWS V14.01,2013-07-06 13:13:00,
2013-07-06 06:18:00,51.4,43.8,31.01,North,-999,-999.0,-999.0,75,0.00,,,0.00,VWS V14.01,2013-07-06 13:18:00,
2013-07-06 06:23:00,51.8,43.8,31.01,North,-999,-999.0,-999.0,74,0.00,,,0.00,VWS V14.01,2013-07-06 13:23:00,
2013-07-06 06:28:00,52.5,44.1,31.01,North,-999,-999.0,-999.0,73,0.00,,,0.00,VWS V14.01,2013-07-06 13:28:00,
2013-07-06 06:33:00,53.2,44.5,31.01,North,-999,-999.0,-999.0,72,0.00,,,0.00,VWS V14.01,2013-07-06 13:33:00,
2013-07-06 06:38:00,54.3,44.4,31.01,North,-999,-999.0,-999.0,69,0.00,,,0.00,VWS V14.01,2013-07-06 13:38:00,
2013-07-06 06:43:00,54.5,44.2,31.01,North,-999,-999.0,-999.0,68,0.00,,,0.00,VWS V14.01,2013-07-06 13:43:00,
2013-07-06 06:48:00,55.0,45.1,31.01,North,-999,-999.0,-999.0,69,0.00,,,0.00,VWS V14.01,2013-07-06 13:48:00,
2013-07-06 06:53:00,56.7,45.4,31.01,North,-999,-999.0,-999.0,66,0.00,,,0.00,VWS V14.01,2013-07-06 13:53:00,
2013-07-06 06:58:00,60.3,48.9,31.01,North,-999,-999.0,-999.0,66,0.00,,,0.00,VWS V14.01,2013-07-06 13:58:00,
2013-07-06 07:03:00,59.7,46.7,31.01,North,-999,-999.0,-999.0,62,0.00,,,0.00,VWS V14.01,2013-07-06 14:03:00,
2013-07-06 07:08:00,60.1,44.3,31.01,North,-999,-999.0,-999.0,56,0.00,,,0.00,VWS V14.01,2013-07-06 14:08:00,
2013-07-06 07:13:00,60.3,45.0,31.01,North,-999,-999.0,-999.0,57,0.00,,,0.00,VWS V14.01,2013-07-06 14:13:00,
2013-07-06 07:18:00,62.6,46.2,31.01,North,-999,-999.0,-999.0,55,0.00,,,0.00,VWS V14.01,2013-07-06 14:18:00,
2013-07-06 07:23:00,65.1,45.5,31.01,North,-999,-999.0,-999.0,49,0.00,,,0.00,VWS V14.01,2013-07-06 14:23:00,
2013-07-06 07:28:00,67.5,45.4,31.01,North,-999,-999.0,-999.0,45,0.00,,,0.00,VWS V14.01,2013-07-06 14:28:00,
2013-07-06 07:33:00,68.0,45.3,31.01,North,-999,-999.0,-999.0,44,0.00,,,0.00,VWS V14.01,2013-07-06 14:33:00,
2013-07-06 07:38:00,67.5,45.4,31.01,North,-999,-999.0,-999.0,45,0.00,,,0.00,VWS V14.01,2013-07-06 14:38:00,
2013-07-06 07:43:00,68.2,45.5,31.01,North,-999,-999.0,-999.0,44,0.00,,,0.00,VWS V14.01,2013-07-06 14:43:00,
2013-07-06 07:48:00,67.8,45.1,31.01,North,-999,-999.0,-999.0,44,0.00,,,0.00,VWS V14.01,2013-07-06 14:48:00,
2013-07-06 07:53:00,67.3,45.8,31.01,North,-999,-999.0,-999.0,46,0.00,,,0.00,VWS V14.01,2013-07-06 14:53:00,
2013-07-06 07:58:00,67.1,44.5,31.01,North,-999,-999.0,-999.0,44,0.00,,,0.00,VWS V14.01,2013-07-06 14:58:00,
2013-07-06 08:03:00,65.5,44.2,31.01,North,-999,-999.0,-999.0,46,0.00,,,0.00,VWS V14.01,2013-07-06 15:03:00,
2013-07-06 08:08:00,65.3,44.0,31.01,North,-999,-999.0,-999.0,46,0.00,,,0.00,VWS V14.01,2013-07-06 15:08:00,
2013-07-06 08:13:00,65.8,43.9,31.01,North,-999,-999.0,-999.0,45,0.00,,,0.00,VWS V14.01,2013-07-06 15:13:00,
2013-07-06 08:18:00,67.5,45.4,31.01,North,-999,-999.0,-999.0,45,0.00,,,0.00,VWS V14.01,2013-07-06 15:18:00,
2013-07-06 08:23:00,68.0,44.1,31.01,North,-999,-999.0,-999.0,42,0.00,,,0.00,VWS V14.01,2013-07-06 15:23:00,
2013-07-06 08:28:00,67.3,44.0,31.01,North,-999,-999.0,-999.0,43,0.00,,,0.00,VWS V14.01,2013-07-06 15:28:00,
2013-07-06 08:33:00,67.8,44.5,31.01,North,-999,-999.0,-999.0,43,0.00,,,0.00,VWS V14.01,2013-07-06 15:33:00,
2013-07-06 08:38:00,68.9,44.2,31.01,North,-999,-999.0,-999.0,41,0.00,,,0.00,VWS V14.01,2013-07-06 15:38:00,
2013-07-06 08:43:00,68.9,44.2,31.01,North,-999,-999.0,-999.0,41,0.00,,,0.00,VWS V14.01,2013-07-06 15:43:00,
2013-07-06 08:48:00,69.4,45.4,31.01,North,-999,-999.0,-999.0,42,0.00,,,0.00,VWS V14.01,2013-07-06 15:48:00,
2013-07-06 08:53:00,69.3,44.6,31.01,North,-999,-999.0,-999.0,41,0.00,,,0.00,VWS V14.01,2013-07-06 15:53:00,
2013-07-06 08:58:00,69.8,44.4,31.01,North,-999,-999.0,-999.0,40,0.00,,,0.00,VWS V14.01,2013-07-06 15:58:00,
2013-07-06 09:04:00,71.6,46.0,31.01,North,-999,-999.0,-999.0,40,0.00,,,0.00,VWS V14.01,2013-07-06 16:04:00,
2013-07-06 09:09:00,70.5,44.4,31.01,North,-999,-999.0,-999.0,39,0.00,,,0.00,VWS V14.01,2013-07-06 16:09:00,
2013-07-06 09:14:00,70.3,44.9,31.01,North,-999,-999.0,-999.0,40,0.00,,,0.00,VWS V14.01,2013-07-06 16:14:00,
2013-07-06 09:19:00,70.5,43.0,31.01,North,-999,-999.0,-999.0,37,0.00,,,0.00,VWS V14.01,2013-07-06 16:19:00,
2013-07-06 09:24:00,70.3,44.2,31.01,North,-999,-999.0,-999.0,39,0.00,,,0.00,VWS V14.01,2013-07-06 16:24:00,
2013-07-06 09:29:00,70.5,45.1,31.01,North,-999,-999.0,-999.0,40,0.00,,,0.00,VWS V14.01,2013-07-06 16:29:00,
2013-07-06 09:34:00,70.7,44.5,31.01,North,-999,-999.0,-999.0,39,0.00,,,0.00,VWS V14.01,2013-07-06 16:34:00,
2013-07-06 09:40:00,70.7,43.9,31.01,North,-999,-999.0,-999.0,38,0.00,,,0.00,VWS V14.01,2013-07-06 16:40:00,
2013-07-06 09:45:00,70.7,43.2,31.01,North,-999,-999.0,-999.0,37,0.00,,,0.00,VWS V14.01,2013-07-06 16:45:00,
2013-07-06 09:50:00,71.1,44.2,31.01,North,-999,-999.0,-999.0,38,0.00,,,0.00,VWS V14.01,2013-07-06 16:50:00,
2013-07-06 09:55:00,71.4,44.5,31.01,North,-999,-999.0,-999.0,38,0.00,,,0.00,VWS V14.01,2013-07-06 16:55:00,
2013-07-06 10:00:00,71.6,44.0,31.01,North,-999,-999.0,-999.0,37,0.00,,,0.00,VWS V14.01,2013-07-06 17:00:00,
2013-07-06 10:05:00,71.6,43.3,31.01,North,-999,-999.0,-999.0,36,0.00,,,0.00,VWS V14.01,2013-07-06 17:05:00,
2013-07-06 10:11:00,72.1,44.5,31.01,North,-999,-999.0,-999.0,37,0.00,,,0.00,VWS V14.01,2013-07-06 17:11:00,
2013-07-06 10:16:00,72.3,43.9,31.01,North,-999,-999.0,-999.0,36,0.00,,,0.00,VWS V14.01,2013-07-06 17:16:00,
2013-07-06 10:21:00,72.7,44.2,31.01,North,-999,-999.0,-999.0,36,0.00,,,0.00,VWS V14.01,2013-07-06 17:21:00,
2013-07-06 10:26:00,72.7,43.5,31.01,North,-999,-999.0,-999.0,35,0.00,,,0.00,VWS V14.01,2013-07-06 17:26:00,
2013-07-06 10:31:00,73.2,44.0,31.01,North,-999,-999.0,-999.0,35,0.00,,,0.00,VWS V14.01,2013-07-06 17:31:00,
2013-07-06 10:36:00,73.2,44.0,31.01,North,-999,-999.0,-999.0,35,0.00,,,0.00,VWS V14.01,2013-07-06 17:36:00,
2013-07-06 10:41:00,73.2,44.0,31.01,North,-999,-999.0,-999.0,35,0.00,,,0.00,VWS V14.01,2013-07-06 17:41:00,
2013-07-06 10:46:00,73.8,44.4,31.01,North,-999,-999.0,-999.0,35,0.00,,,0.00,VWS V14.01,2013-07-06 17:46:00,
2013-07-06 10:51:00,74.5,44.3,31.01,North,-999,-999.0,-999.0,34,0.00,,,0.00,VWS V14.01,2013-07-06 17:51:00,
2013-07-06 10:56:00,74.7,44.5,31.01,North,-999,-999.0,-999.0,34,0.00,,,0.00,VWS V14.01,2013-07-06 17:56:00,
2013-07-06 11:01:00,75.0,44.0,31.01,North,-999,-999.0,-999.0,33,0.00,,,0.00,VWS V14.01,2013-07-06 18:01:00,
2013-07-06 11:07:00,74.8,43.8,31.01,North,-999,-999.0,-999.0,33,0.00,,,0.00,VWS V14.01,2013-07-06 18:07:00,
2013-07-06 11:12:00,75.7,44.6,31.01,North,-999,-999.0,-999.0,33,0.00,,,0.00,VWS V14.01,2013-07-06 18:12:00,
2013-07-06 11:17:00,76.3,44.3,31.01,North,-999,-999.0,-999.0,32,0.00,,,0.00,VWS V14.01,2013-07-06 18:17:00,
2013-07-06 11:22:00,76.6,44.6,31.01,North,-999,-999.0,-999.0,32,0.00,,,0.00,VWS V14.01,2013-07-06 18:22:00,
2013-07-06 11:27:00,75.7,43.8,31.01,North,-999,-999.0,-999.0,32,0.00,,,0.00,VWS V14.01,2013-07-06 18:27:00,
2013-07-06 11:32:00,76.1,45.7,31.01,North,-999,-999.0,-999.0,34,0.00,,,0.00,VWS V14.01,2013-07-06 18:32:00,
2013-07-06 11:38:00,76.5,45.2,31.01,North,-999,-999.0,-999.0,33,0.00,,,0.00,VWS V14.01,2013-07-06 18:38:00,
2013-07-06 11:43:00,77.0,44.9,31.01,North,-999,-999.0,-999.0,32,0.00,,,0.00,VWS V14.01,2013-07-06 18:43:00,
2013-07-06 11:48:00,77.5,45.4,31.01,North,-999,-999.0,-999.0,32,0.00,,,0.00,VWS V14.01,2013-07-06 18:48:00,
2013-07-06 11:53:00,78.3,45.2,31.01,North,-999,-999.0,-999.0,31,0.00,,,0.00,VWS V14.01,2013-07-06 18:53:00,
2013-07-06 11:58:00,77.7,45.5,31.01,North,-999,-999.0,-999.0,32,0.00,,,0.00,VWS V14.01,2013-07-06 18:58:00,
2013-07-06 12:03:00,78.1,45.0,31.01,North,-999,-999.0,-999.0,31,0.00,,,0.00,VWS V14.01,2013-07-06 19:03:00,
2013-07-06 12:08:00,78.6,45.5,31.01,North,-999,-999.0,-999.0,31,0.00,,,0.00,VWS V14.01,2013-07-06 19:08:00,
2013-07-06 12:13:00,78.1,45.0,31.01,North,-999,-999.0,-999.0,31,0.00,,,0.00,VWS V14.01,2013-07-06 19:13:00,
2013-07-06 12:18:00,78.1,45.0,31.01,North,-999,-999.0,-999.0,31,0.00,,,0.00,VWS V14.01,2013-07-06 19:18:00,
2013-07-06 12:23:00,78.4,45.3,31.01,North,-999,-999.0,-999.0,31,0.00,,,0.00,VWS V14.01,2013-07-06 19:23:00,
2013-07-06 12:28:00,78.8,44.8,31.01,North,-999,-999.0,-999.0,30,0.00,,,0.00,VWS V14.01,2013-07-06 19:28:00,
2013-07-06 12:33:00,79.2,45.1,31.01,North,-999,-999.0,-999.0,30,0.00,,,0.00,VWS V14.01,2013-07-06 19:33:00,
2013-07-06 12:39:00,79.0,44.9,31.01,North,-999,-999.0,-999.0,30,0.00,,,0.00,VWS V14.01,2013-07-06 19:39:00,
2013-07-06 12:44:00,78.8,44.8,31.01,North,-999,-999.0,-999.0,30,0.00,,,0.00,VWS V14.01,2013-07-06 19:44:00,
2013-07-06 12:49:00,77.7,43.8,31.01,North,-999,-999.0,-999.0,30,0.00,,,0.00,VWS V14.01,2013-07-06 19:49:00,
2013-07-06 12:54:00,79.2,45.1,31.01,North,-999,-999.0,-999.0,30,0.00,,,0.00,VWS V14.01,2013-07-06 19:54:00,
2013-07-06 13:00:00,78.3,44.3,31.01,North,-999,-999.0,-999.0,30,0.00,,,0.00,VWS V14.01,2013-07-06 20:00:00,
2013-07-06 13:05:00,78.4,45.3,31.01,North,-999,-999.0,-999.0,31,0.00,,,0.00,VWS V14.01,2013-07-06 20:05:00,
2013-07-06 13:10:00,79.5,45.4,31.01,North,-999,-999.0,-999.0,30,0.00,,,0.00,VWS V14.01,2013-07-06 20:10:00,
2013-07-06 13:15:00,78.4,44.5,31.01,North,-999,-999.0,-999.0,30,0.00,,,0.00,VWS V14.01,2013-07-06 20:15:00,
2013-07-06 13:21:00,78.3,45.2,31.01,North,-999,-999.0,-999.0,31,0.00,,,0.00,VWS V14.01,2013-07-06 20:21:00,
2013-07-06 13:26:00,78.1,44.2,31.01,North,-999,-999.0,-999.0,30,0.00,,,0.00,VWS V14.01,2013-07-06 20:26:00,
2013-07-06 13:31:00,78.6,45.5,31.01,North,-999,-999.0,-999.0,31,0.00,,,0.00,VWS V14.01,2013-07-06 20:31:00,
2013-07-06 13:36:00,78.8,44.8,31.01,North,-999,-999.0,-999.0,30,0.00,,,0.00,VWS V14.01,2013-07-06 20:36:00,
2013-07-06 13:41:00,79.7,45.6,31.01,North,-999,-999.0,-999.0,30,0.00,,,0.00,VWS V14.01,2013-07-06 20:41:00,
2013-07-06 13:47:00,80.1,45.9,31.01,North,-999,-999.0,-999.0,30,0.00,,,0.00,VWS V14.01,2013-07-06 20:47:00,
2013-07-06 13:52:00,81.1,45.9,31.01,North,-999,-999.0,-999.0,29,0.00,,,0.00,VWS V14.01,2013-07-06 20:52:00,
2013-07-06 13:57:00,81.3,46.1,31.01,North,-999,-999.0,-999.0,29,0.00,,,0.00,VWS V14.01,2013-07-06 20:57:00,
2013-07-06 14:02:00,81.7,46.4,31.01,North,-999,-999.0,-999.0,29,0.00,,,0.00,VWS V14.01,2013-07-06 21:02:00,
2013-07-06 14:08:00,82.8,47.3,31.01,North,-999,-999.0,-999.0,29,0.00,,,0.00,VWS V14.01,2013-07-06 21:08:00,
2013-07-06 14:12:00,82.9,46.5,31.01,North,-999,-999.0,-999.0,28,0.00,,,0.00,VWS V14.01,2013-07-06 21:12:00,
2013-07-06 14:18:00,81.9,45.6,31.01,North,-999,-999.0,-999.0,28,0.00,,,0.00,VWS V14.01,2013-07-06 21:18:00,
2013-07-06 14:23:00,82.0,45.8,31.01,North,-999,-999.0,-999.0,28,0.00,,,0.00,VWS V14.01,2013-07-06 21:23:00,
2013-07-06 14:28:00,81.3,45.1,31.01,North,-999,-999.0,-999.0,28,0.00,,,0.00,VWS V14.01,2013-07-06 21:28:00,
2013-07-06 14:33:00,81.1,45.9,31.01,North,-999,-999.0,-999.0,29,0.00,,,0.00,VWS V14.01,2013-07-06 21:33:00,
2013-07-06 14:38:00,80.2,45.1,31.01,North,-999,-999.0,-999.0,29,0.00,,,0.00,VWS V14.01,2013-07-06 21:38:00,
2013-07-06 14:43:00,78.4,43.6,31.01,North,-999,-999.0,-999.0,29,0.00,,,0.00,VWS V14.01,2013-07-06 21:43:00,
2013-07-06 14:48:00,78.4,43.6,31.01,North,-999,-999.0,-999.0,29,0.00,,,0.00,VWS V14.01,2013-07-06 21:48:00,
2013-07-06 14:54:00,80.4,45.3,31.01,North,-999,-999.0,-999.0,29,0.00,,,0.00,VWS V14.01,2013-07-06 21:54:00,
2013-07-06 14:59:00,81.1,44.0,31.01,North,-999,-999.0,-999.0,27,0.00,,,0.00,VWS V14.01,2013-07-06 21:59:00,
2013-07-06 15:04:00,80.4,44.4,31.01,North,-999,-999.0,-999.0,28,0.00,,,0.00,VWS V14.01,2013-07-06 22:04:00,
2013-07-06 15:09:00,81.7,44.5,31.01,North,-999,-999.0,-999.0,27,0.00,,,0.00,VWS V14.01,2013-07-06 22:09:00,
2013-07-06 15:15:00,82.6,45.2,31.01,North,-999,-999.0,-999.0,27,0.00,,,0.00,VWS V14.01,2013-07-06 22:15:00,
2013-07-06 15:20:00,82.9,45.6,31.01,North,-999,-999.0,-999.0,27,0.00,,,0.00,VWS V14.01,2013-07-06 22:20:00,
2013-07-06 15:25:00,82.9,44.6,31.01,North,-999,-999.0,-999.0,26,0.00,,,0.00,VWS V14.01,2013-07-06 22:25:00,
2013-07-06 15:30:00,82.9,45.6,31.01,North,-999,-999.0,-999.0,27,0.00,,,0.00,VWS V14.01,2013-07-06 22:30:00,
2013-07-06 15:35:00,83.3,44.9,31.01,North,-999,-999.0,-999.0,26,0.00,,,0.00,VWS V14.01,2013-07-06 22:35:00,
2013-07-06 15:40:00,83.3,43.8,31.01,North,-999,-999.0,-999.0,25,0.00,,,0.00,VWS V14.01,2013-07-06 22:40:00,
2013-07-06 15:45:00,83.1,43.7,31.01,North,-999,-999.0,-999.0,25,0.00,,,0.00,VWS V14.01,2013-07-06 22:45:00,
2013-07-06 15:50:00,80.1,42.1,31.01,North,-999,-999.0,-999.0,26,0.00,,,0.00,VWS V14.01,2013-07-06 22:50:00,
2013-07-06 15:55:00,78.8,41.0,31.01,North,-999,-999.0,-999.0,26,0.00,,,0.00,VWS V14.01,2013-07-06 22:55:00,
2013-07-06 16:01:00,79.3,42.5,31.01,North,-999,-999.0,-999.0,27,0.00,,,0.00,VWS V14.01,2013-07-06 23:01:00,
2013-07-06 16:06:00,79.3,42.5,31.01,North,-999,-999.0,-999.0,27,0.00,,,0.00,VWS V14.01,2013-07-06 23:06:00,
2013-07-06 16:11:00,78.4,40.8,31.01,North,-999,-999.0,-999.0,26,0.00,,,0.00,VWS V14.01,2013-07-06 23:11:00,
2013-07-06 16:16:00,79.2,42.3,31.01,North,-999,-999.0,-999.0,27,0.00,,,0.00,VWS V14.01,2013-07-06 23:16:00,
2013-07-06 16:21:00,79.7,42.8,31.01,North,-999,-999.0,-999.0,27,0.00,,,0.00,VWS V14.01,2013-07-06 23:21:00,
2013-07-06 16:26:00,80.4,43.4,31.01,North,-999,-999.0,-999.0,27,0.00,,,0.00,VWS V14.01,2013-07-06 23:26:00,
2013-07-06 16:31:00,82.0,42.8,31.01,North,-999,-999.0,-999.0,25,0.00,,,0.00,VWS V14.01,2013-07-06 23:31:00,
2013-07-06 16:37:00,82.2,42.9,31.01,North,-999,-999.0,-999.0,25,0.00,,,0.00,VWS V14.01,2013-07-06 23:37:00,
2013-07-06 16:42:00,82.6,42.2,31.01,North,-999,-999.0,-999.0,24,0.00,,,0.00,VWS V14.01,2013-07-06 23:42:00,
2013-07-06 16:47:00,82.2,42.9,31.01,North,-999,-999.0,-999.0,25,0.00,,,0.00,VWS V14.01,2013-07-06 23:47:00,
2013-07-06 16:52:00,81.5,41.3,31.01,North,-999,-999.0,-999.0,24,0.00,,,0.00,VWS V14.01,2013-07-06 23:52:00,
2013-07-06 16:57:00,80.6,41.6,31.01,North,-999,-999.0,-999.0,25,0.00,,,0.00,VWS V14.01,2013-07-06 23:57:00,
2013-07-06 17:02:00,79.2,40.3,31.01,North,-999,-999.0,-999.0,25,0.00,,,0.00,VWS V14.01,2013-07-07 00:02:00,
2013-07-06 17:08:00,79.5,41.7,31.01,North,-999,-999.0,-999.0,26,0.00,,,0.00,VWS V14.01,2013-07-07 00:08:00,
2013-07-06 17:13:00,81.1,41.0,31.01,North,-999,-999.0,-999.0,24,0.00,,,0.00,VWS V14.01,2013-07-07 00:13:00,
2013-07-06 17:18:00,81.9,41.6,31.01,North,-999,-999.0,-999.0,24,0.00,,,0.00,VWS V14.01,2013-07-07 00:18:00,
2013-07-06 17:23:00,80.6,40.5,31.01,North,-999,-999.0,-999.0,24,0.00,,,0.00,VWS V14.01,2013-07-07 00:23:00,
2013-07-06 17:28:00,79.9,41.0,31.01,North,-999,-999.0,-999.0,25,0.00,,,0.00,VWS V14.01,2013-07-07 00:28:00,
2013-07-06 17:33:00,79.9,41.0,31.01,North,-999,-999.0,-999.0,25,0.00,,,0.00,VWS V14.01,2013-07-07 00:33:00,
2013-07-06 17:38:00,80.4,41.4,31.01,North,-999,-999.0,-999.0,25,0.00,,,0.00,VWS V14.01,2013-07-07 00:38:00,
2013-07-06 17:43:00,80.6,40.5,31.01,North,-999,-999.0,-999.0,24,0.00,,,0.00,VWS V14.01,2013-07-07 00:43:00,
2013-07-06 17:48:00,80.8,40.7,31.01,North,-999,-999.0,-999.0,24,0.00,,,0.00,VWS V14.01,2013-07-07 00:48:00,
2013-07-06 17:53:00,80.8,40.7,31.01,North,-999,-999.0,-999.0,24,0.00,,,0.00,VWS V14.01,2013-07-07 00:53:00,
2013-07-06 17:58:00,81.0,40.8,31.01,North,-999,-999.0,-999.0,24,0.00,,,0.00,VWS V14.01,2013-07-07 00:58:00,
2013-07-06 18:04:00,81.0,41.9,31.01,North,-999,-999.0,-999.0,25,0.00,,,0.00,VWS V14.01,2013-07-07 01:04:00,
2013-07-06 18:09:00,81.0,40.8,31.01,North,-999,-999.0,-999.0,24,0.00,,,0.00,VWS V14.01,2013-07-07 01:09:00,
2013-07-06 18:14:00,80.8,40.7,31.01,North,-999,-999.0,-999.0,24,0.00,,,0.00,VWS V14.01,2013-07-07 01:14:00,
2013-07-06 18:19:00,80.2,41.3,31.01,North,-999,-999.0,-999.0,25,0.00,,,0.00,VWS V14.01,2013-07-07 01:19:00,
2013-07-06 18:24:00,80.1,41.1,31.01,North,-999,-999.0,-999.0,25,0.00,,,0.00,VWS V14.01,2013-07-07 01:24:00,
2013-07-06 18:29:00,79.9,41.0,31.01,North,-999,-999.0,-999.0,25,0.00,,,0.00,VWS V14.01,2013-07-07 01:29:00,
2013-07-06 18:34:00,79.5,40.7,31.01,North,-999,-999.0,-999.0,25,0.00,,,0.00,VWS V14.01,2013-07-07 01:34:00,
2013-07-06 18:39:00,79.5,40.7,31.01,North,-999,-999.0,-999.0,25,0.00,,,0.00,VWS V14.01,2013-07-07 01:39:00,
2013-07-06 18:44:00,79.3,40.5,31.01,North,-999,-999.0,-999.0,25,0.00,,,0.00,VWS V14.01,2013-07-07 01:44:00,
2013-07-06 18:49:00,79.3,40.5,31.01,North,-999,-999.0,-999.0,25,0.00,,,0.00,VWS V14.01,2013-07-07 01:49:00,
2013-07-06 18:54:00,79.5,40.7,31.01,North,-999,-999.0,-999.0,25,0.00,,,0.00,VWS V14.01,2013-07-07 01:54:00,
2013-07-06 18:59:00,79.5,40.7,31.01,North,-999,-999.0,-999.0,25,0.00,,,0.00,VWS V14.01,2013-07-07 01:59:00,
2013-07-06 19:04:00,79.3,40.5,31.01,North,-999,-999.0,-999.0,25,0.00,,,0.00,VWS V14.01,2013-07-07 02:04:00,
2013-07-06 19:10:00,79.3,40.5,31.01,North,-999,-999.0,-999.0,25,0.00,,,0.00,VWS V14.01,2013-07-07 02:10:00,
2013-07-06 19:15:00,79.2,40.3,31.01,North,-999,-999.0,-999.0,25,0.00,,,0.00,VWS V14.01,2013-07-07 02:15:00,
2013-07-06 19:21:00,79.2,41.4,31.01,North,-999,-999.0,-999.0,26,0.00,,,0.00,VWS V14.01,2013-07-07 02:21:00,
2013-07-06 19:26:00,78.8,42.0,31.01,North,-999,-999.0,-999.0,27,0.00,,,0.00,VWS V14.01,2013-07-07 02:26:00,
2013-07-06 19:31:00,77.9,41.3,31.01,North,-999,-999.0,-999.0,27,0.00,,,0.00,VWS V14.01,2013-07-07 02:31:00,
2013-07-06 19:36:00,76.6,40.2,31.01,North,-999,-999.0,-999.0,27,0.00,,,0.00,VWS V14.01,2013-07-07 02:36:00,
2013-07-06 19:41:00,75.9,40.5,31.01,North,-999,-999.0,-999.0,28,0.00,,,0.00,VWS V14.01,2013-07-07 02:41:00,
2013-07-06 19:47:00,75.2,39.9,31.01,North,-999,-999.0,-999.0,28,0.00,,,0.00,VWS V14.01,2013-07-07 02:47:00,
2013-07-06 19:52:00,73.0,39.8,31.01,North,-999,-999.0,-999.0,30,0.00,,,0.00,VWS V14.01,2013-07-07 02:52:00,
2013-07-06 19:57:00,73.0,39.8,31.01,North,-999,-999.0,-999.0,30,0.00,,,0.00,VWS V14.01,2013-07-07 02:57:00,
2013-07-06 20:02:00,70.0,38.8,31.01,North,-999,-999.0,-999.0,32,0.00,,,0.00,VWS V14.01,2013-07-07 03:02:00,
2013-07-06 20:07:00,68.2,38.8,31.01,North,-999,-999.0,-999.0,34,0.00,,,0.00,VWS V14.01,2013-07-07 03:07:00,
2013-07-06 20:12:00,68.2,38.8,31.01,North,-999,-999.0,-999.0,34,0.00,,,0.00,VWS V14.01,2013-07-07 03:12:00,
2013-07-06 20:17:00,68.2,38.8,31.01,North,-999,-999.0,-999.0,34,0.00,,,0.00,VWS V14.01,2013-07-07 03:17:00,
2013-07-06 20:23:00,67.1,38.6,31.01,North,-999,-999.0,-999.0,35,0.00,,,0.00,VWS V14.01,2013-07-07 03:23:00,
2013-07-06 20:28:00,67.1,38.6,31.01,North,-999,-999.0,-999.0,35,0.00,,,0.00,VWS V14.01,2013-07-07 03:28:00,
2013-07-06 20:33:00,65.3,38.4,31.01,North,-999,-999.0,-999.0,37,0.00,,,0.00,VWS V14.01,2013-07-07 03:33:00,
2013-07-06 20:38:00,64.8,37.9,31.01,North,-999,-999.0,-999.0,37,0.00,,,0.00,VWS V14.01,2013-07-07 03:38:00,
2013-07-06 20:43:00,64.8,37.9,31.01,North,-999,-999.0,-999.0,37,0.00,,,0.00,VWS V14.01,2013-07-07 03:43:00,
2013-07-06 20:49:00,63.0,38.3,31.01,North,-999,-999.0,-999.0,40,0.00,,,0.00,VWS V14.01,2013-07-07 03:49:00,
2013-07-06 20:54:00,61.3,41.0,31.01,North,-999,-999.0,-999.0,47,0.00,,,0.00,VWS V14.01,2013-07-07 03:54:00,
2013-07-06 20:59:00,61.2,41.9,31.01,North,-999,-999.0,-999.0,49,0.00,,,0.00,VWS V14.01,2013-07-07 03:59:00,
2013-07-06 21:01:00,61.2,41.9,31.01,North,-999,-999.0,-999.0,49,0.00,,,0.00,VWS V14.01,2013-07-07 04:01:00,
2013-07-06 21:06:00,61.2,41.9,31.01,North,-999,-999.0,-999.0,49,0.00,,,0.00,VWS V14.01,2013-07-07 04:06:00,
2013-07-06 21:11:00,60.4,43.2,31.01,North,-999,-999.0,-999.0,53,0.00,,,0.00,VWS V14.01,2013-07-07 04:11:00,
2013-07-06 21:16:00,60.4,43.2,31.01,North,-999,-999.0,-999.0,53,0.00,,,0.00,VWS V14.01,2013-07-07 04:16:00,
2013-07-06 21:21:00,59.7,44.0,31.01,North,-999,-999.0,-999.0,56,0.00,,,0.00,VWS V14.01,2013-07-07 04:21:00,
2013-07-06 21:26:00,59.4,44.1,31.01,North,-999,-999.0,-999.0,57,0.00,,,0.00,VWS V14.01,2013-07-07 04:26:00,
2013-07-06 21:31:00,58.6,43.9,31.01,North,-999,-999.0,-999.0,58,0.00,,,0.00,VWS V14.01,2013-07-07 04:31:00,
2013-07-06 21:36:00,58.3,44.0,31.01,North,-999,-999.0,-999.0,59,0.00,,,0.00,VWS V14.01,2013-07-07 04:36:00,
2013-07-06 21:41:00,58.3,43.1,31.01,North,-999,-999.0,-999.0,57,0.00,,,0.00,VWS V14.01,2013-07-07 04:41:00,
2013-07-06 21:46:00,58.3,43.1,31.01,North,-999,-999.0,-999.0,57,0.00,,,0.00,VWS V14.01,2013-07-07 04:46:00,
2013-07-06 21:51:00,58.3,43.1,31.01,North,-999,-999.0,-999.0,57,0.00,,,0.00,VWS V14.01,2013-07-07 04:51:00,
2013-07-06 21:56:00,58.3,43.1,31.01,North,-999,-999.0,-999.0,57,0.00,,,0.00,VWS V14.01,2013-07-07 04:56:00,
2013-07-06 22:01:00,58.3,43.1,31.01,North,-999,-999.0,-999.0,57,0.00,,,0.00,VWS V14.01,2013-07-07 05:01:00,
2013-07-06 22:06:00,58.1,43.0,31.01,North,-999,-999.0,-999.0,57,0.00,,,0.00,VWS V14.01,2013-07-07 05:06:00,
2013-07-06 22:11:00,58.6,42.5,31.01,North,-999,-999.0,-999.0,55,0.00,,,0.00,VWS V14.01,2013-07-07 05:11:00,
2013-07-06 22:16:00,58.6,42.5,31.01,North,-999,-999.0,-999.0,55,0.00,,,0.00,VWS V14.01,2013-07-07 05:16:00,
2013-07-06 22:21:00,58.6,42.5,31.01,North,-999,-999.0,-999.0,55,0.00,,,0.00,VWS V14.01,2013-07-07 05:21:00,
2013-07-06 22:26:00,58.6,42.5,31.01,North,-999,-999.0,-999.0,55,0.00,,,0.00,VWS V14.01,2013-07-07 05:26:00,
2013-07-06 22:31:00,55.9,42.7,31.01,North,-999,-999.0,-999.0,61,0.00,,,0.00,VWS V14.01,2013-07-07 05:31:00,
2013-07-06 22:36:00,55.9,42.7,31.01,North,-999,-999.0,-999.0,61,0.00,,,0.00,VWS V14.01,2013-07-07 05:36:00,
2013-07-06 22:41:00,55.9,42.7,31.01,North,-999,-999.0,-999.0,61,0.00,,,0.00,VWS V14.01,2013-07-07 05:41:00,
2013-07-06 22:46:00,54.5,43.8,31.01,North,-999,-999.0,-999.0,67,0.00,,,0.00,VWS V14.01,2013-07-07 05:46:00,
2013-07-06 22:51:00,55.4,43.8,31.01,North,-999,-999.0,-999.0,65,0.00,,,0.00,VWS V14.01,2013-07-07 05:51:00,
2013-07-06 22:56:00,55.6,43.6,31.01,North,-999,-999.0,-999.0,64,0.00,,,0.00,VWS V14.01,2013-07-07 05:56:00,
2013-07-06 23:00:00,54.5,43.0,31.01,North,-999,-999.0,-999.0,65,0.00,,,0.00,VWS V14.01,2013-07-07 06:00:00,
2013-07-06 23:01:00,54.5,43.0,31.01,North,-999,-999.0,-999.0,65,0.00,,,0.00,VWS V14.01,2013-07-07 06:01:00,
2013-07-06 23:02:00,54.5,43.0,31.01,North,-999,-999.0,-999.0,65,0.00,,,0.00,VWS V14.01,2013-07-07 06:02:00,
2013-07-06 23:03:00,54.5,43.0,31.01,North,-999,-999.0,-999.0,65,0.00,,,0.00,VWS V14.01,2013-07-07 06:03:00,
2013-07-06 23:04:00,54.5,43.0,31.01,North,-999,-999.0,-999.0,65,0.00,,,0.00,VWS V14.01,2013-07-07 06:04:00,
2013-07-06 23:05:00,53.6,42.9,31.01,North,-999,-999.0,-999.0,67,0.00,,,0.00,VWS V14.01,2013-07-07 06:05:00,
2013-07-06 23:06:00,53.6,42.9,31.01,North,-999,-999.0,-999.0,67,0.00,,,0.00,VWS V14.01,2013-07-07 06:06:00,
2013-07-06 23:07:00,53.6,42.9,31.01,North,-999,-999.0,-999.0,67,0.00,,,0.00,VWS V14.01,2013-07-07 06:07:00,
2013-07-06 23:08:00,53.6,42.9,31.01,North,-999,-999.0,-999.0,67,0.00,,,0.00,VWS V14.01,2013-07-07 06:08:00,
2013-07-06 23:09:00,53.6,42.9,31.01,North,-999,-999.0,-999.0,67,0.00,,,0.00,VWS V14.01,2013-07-07 06:09:00,
2013-07-06 23:10:00,53.6,42.9,31.01,North,-999,-999.0,-999.0,67,0.00,,,0.00,VWS V14.01,2013-07-07 06:10:00,
2013-07-06 23:11:00,53.6,42.9,31.01,North,-999,-999.0,-999.0,67,0.00,,,0.00,VWS V14.01,2013-07-07 06:11:00,
2013-07-06 23:12:00,53.2,43.0,31.01,North,-999,-999.0,-999.0,68,0.00,,,0.00,VWS V14.01,2013-07-07 06:12:00,
2013-07-06 23:13:00,53.2,43.0,31.01,North,-999,-999.0,-999.0,68,0.00,,,0.00,VWS V14.01,2013-07-07 06:13:00,
2013-07-06 23:14:00,53.2,43.3,31.01,North,-999,-999.0,-999.0,69,0.00,,,0.00,VWS V14.01,2013-07-07 06:14:00,
2013-07-06 23:15:00,53.4,43.5,31.01,North,-999,-999.0,-999.0,69,0.00,,,0.00,VWS V14.01,2013-07-07 06:15:00,
2013-07-06 23:16:00,53.4,43.5,31.01,North,-999,-999.0,-999.0,69,0.00,,,0.00,VWS V14.01,2013-07-07 06:16:00,
2013-07-06 23:17:00,53.4,43.5,31.01,North,-999,-999.0,-999.0,69,0.00,,,0.00,VWS V14.01,2013-07-07 06:17:00,
2013-07-06 23:18:00,53.4,43.5,31.01,North,-999,-999.0,-999.0,69,0.00,,,0.00,VWS V14.01,2013-07-07 06:18:00,
2013-07-06 23:19:00,53.4,43.5,31.01,North,-999,-999.0,-999.0,69,0.00,,,0.00,VWS V14.01,2013-07-07 06:19:00,
2013-07-06 23:20:00,53.4,43.5,31.01,North,-999,-999.0,-999.0,69,0.00,,,0.00,VWS V14.01,2013-07-07 06:20:00,
2013-07-06 23:21:00,53.4,43.5,31.01,North,-999,-999.0,-999.0,69,0.00,,,0.00,VWS V14.01,2013-07-07 06:21:00,
2013-07-06 23:22:00,53.4,43.5,31.01,North,-999,-999.0,-999.0,69,0.00,,,0.00,VWS V14.01,2013-07-07 06:22:00,
2013-07-06 23:23:00,53.4,43.5,31.01,North,-999,-999.0,-999.0,69,0.00,,,0.00,VWS V14.01,2013-07-07 06:23:00,
2013-07-06 23:24:00,53.4,43.5,31.01,North,-999,-999.0,-999.0,69,0.00,,,0.00,VWS V14.01,2013-07-07 06:24:00,
2013-07-06 23:25:00,53.4,43.5,31.01,North,-999,-999.0,-999.0,69,0.00,,,0.00,VWS V14.01,2013-07-07 06:25:00,
2013-07-06 23:26:00,53.4,43.5,31.01,North,-999,-999.0,-999.0,69,0.00,,,0.00,VWS V14.01,2013-07-07 06:26:00,
2013-07-06 23:27:00,53.4,43.5,31.01,North,-999,-999.0,-999.0,69,0.00,,,0.00,VWS V14.01,2013-07-07 06:27:00,
2013-07-06 23:28:00,53.4,43.5,31.01,North,-999,-999.0,-999.0,69,0.00,,,0.00,VWS V14.01,2013-07-07 06:28:00,
2013-07-06 23:29:00,53.4,43.5,31.01,North,-999,-999.0,-999.0,69,0.00,,,0.00,VWS V14.01,2013-07-07 06:29:00,
2013-07-06 23:30:00,53.4,43.5,31.01,North,-999,-999.0,-999.0,69,0.00,,,0.00,VWS V14.01,2013-07-07 06:30:00,
2013-07-06 23:31:00,53.4,43.5,31.01,North,-999,-999.0,-999.0,69,0.00,,,0.00,VWS V14.01,2013-07-07 06:31:00,
2013-07-06 23:32:00,53.4,43.5,31.01,North,-999,-999.0,-999.0,69,0.00,,,0.00,VWS V14.01,2013-07-07 06:32:00,
2013-07-06 23:33:00,53.4,43.5,31.01,North,-999,-999.0,-999.0,69,0.00,,,0.00,VWS V14.01,2013-07-07 06:33:00,
2013-07-06 23:34:00,53.4,43.5,31.01,North,-999,-999.0,-999.0,69,0.00,,,0.00,VWS V14.01,2013-07-07 06:34:00,
2013-07-06 23:35:00,55.4,43.4,31.01,North,-999,-999.0,-999.0,64,0.00,,,0.00,VWS V14.01,2013-07-07 06:35:00,
2013-07-06 23:36:00,55.4,43.4,31.01,North,-999,-999.0,-999.0,64,0.00,,,0.00,VWS V14.01,2013-07-07 06:36:00,
2013-07-06 23:37:00,55.8,44.2,31.01,North,-999,-999.0,-999.0,65,0.00,,,0.00,VWS V14.01,2013-07-07 06:37:00,
2013-07-06 23:38:00,55.9,44.4,31.01,North,-999,-999.0,-999.0,65,0.00,,,0.00,VWS V14.01,2013-07-07 06:38:00,
2013-07-06 23:39:00,55.9,44.4,31.01,North,-999,-999.0,-999.0,65,0.00,,,0.00,VWS V14.01,2013-07-07 06:39:00,
2013-07-06 23:40:00,55.9,44.4,31.01,North,-999,-999.0,-999.0,65,0.00,,,0.00,VWS V14.01,2013-07-07 06:40:00,
2013-07-06 23:41:00,55.9,44.4,31.01,North,-999,-999.0,-999.0,65,0.00,,,0.00,VWS V14.01,2013-07-07 06:41:00,
2013-07-06 23:42:00,55.9,44.4,31.01,North,-999,-999.0,-999.0,65,0.00,,,0.00,VWS V14.01,2013-07-07 06:42:00,
2013-07-06 23:43:00,55.9,44.4,31.01,North,-999,-999.0,-999.0,65,0.00,,,0.00,VWS V14.01,2013-07-07 06:43:00,
2013-07-06 23:44:00,56.7,44.2,31.01,North,-999,-999.0,-999.0,63,0.00,,,0.00,VWS V14.01,2013-07-07 06:44:00,
2013-07-06 23:45:00,56.7,44.2,31.01,North,-999,-999.0,-999.0,63,0.00,,,0.00,VWS V14.01,2013-07-07 06:45:00,
2013-07-06 23:46:00,56.7,44.2,31.01,North,-999,-999.0,-999.0,63,0.00,,,0.00,VWS V14.01,2013-07-07 06:46:00,
2013-07-06 23:47:00,56.8,44.4,31.01,North,-999,-999.0,-999.0,63,0.00,,,0.00,VWS V14.01,2013-07-07 06:47:00,
2013-07-06 23:48:00,56.8,44.4,31.01,North,-999,-999.0,-999.0,63,0.00,,,0.00,VWS V14.01,2013-07-07 06:48:00,
2013-07-06 23:49:00,56.8,44.4,31.01,North,-999,-999.0,-999.0,63,0.00,,,0.00,VWS V14.01,2013-07-07 06:49:00,
2013-07-06 23:50:00,56.8,44.4,31.01,North,-999,-999.0,-999.0,63,0.00,,,0.00,VWS V14.01,2013-07-07 06:50:00,
2013-07-06 23:51:00,56.8,44.4,31.01,North,-999,-999.0,-999.0,63,0.00,,,0.00,VWS V14.01,2013-07-07 06:51:00,
2013-07-06 23:52:00,56.8,44.4,31.01,North,-999,-999.0,-999.0,63,0.00,,,0.00,VWS V14.01,2013-07-07 06:52:00,
2013-07-06 23:53:00,56.8,44.4,31.01,North,-999,-999.0,-999.0,63,0.00,,,0.00,VWS V14.01,2013-07-07 06:53:00,
2013-07-06 23:54:00,56.8,44.4,31.01,North,-999,-999.0,-999.0,63,0.00,,,0.00,VWS V14.01,2013-07-07 06:54:00,
2013-07-06 23:55:00,56.8,44.4,31.01,North,-999,-999.0,-999.0,63,0.00,,,0.00,VWS V14.01,2013-07-07 06:55:00,
2013-07-06 23:56:00,56.8,44.4,31.01,North,-999,-999.0,-999.0,63,0.00,,,0.00,VWS V14.01,2013-07-07 06:56:00,
2013-07-06 23:57:00,56.8,44.4,31.01,North,-999,-999.0,-999.0,63,0.00,,,0.00,VWS V14.01,2013-07-07 06:57:00,
2013-07-06 23:58:00,56.8,44.4,31.01,North,-999,-999.0,-999.0,63,0.00,,,0.00,VWS V14.01,2013-07-07 06:58:00,
2013-07-06 23:59:00,56.8,44.4,31.01,North,-999,-999.0,-999.0,63,0.00,,,0.00,VWS V14.01,2013-07-07 06:59:00,